Location: Petruro
(41.0333°N, 14.7833°E)
Time: 19:43:10
(UTC+00:00)

PSLV DEB - Visible Passes

Search period start: 16 January 2022 00:00
Search period end: 26 January 2022 00:00
Orbit: 565 x 615 km, 97.9° (Epoch: 16 January)

Date Brightness Start Highest point End Pass type
(mag) Time Alt. Az. Time Alt. Az. Time Alt. Az.
16 Jan ? 05:52:12 10° NNE 05:56:26 52° E 06:00:37 10° S visible
16 Jan ? 16:42:34 10° SE 16:46:23 36° ENE 16:50:16 10° N visible
16 Jan ? 18:19:02 10° SW 18:21:59 19° W 18:25:00 10° NW visible
17 Jan ? 16:50:30 10° SE 16:54:28 44° ENE 16:58:31 10° N visible
17 Jan ? 18:27:42 10° SW 18:30:11 15° W 18:32:42 10° NW visible
18 Jan ? 16:58:28 10° SSE 17:02:33 54° ENE 17:06:43 10° N visible
18 Jan ? 18:36:36 10° WSW 18:38:23 12° W 18:40:12 10° WNW visible
19 Jan ? 17:06:28 10° SSE 17:10:38 68° ENE 17:14:52 10° N visible
20 Jan ? 04:52:13 10° E 04:52:59 10° E 04:53:46 10° E visible
20 Jan ? 17:14:31 10° SSE 17:18:42 84° ENE 17:23:00 10° N visible
21 Jan ? 04:59:10 10° ENE 05:01:10 13° E 05:03:09 10° ESE visible
21 Jan ? 17:22:35 10° S 17:26:48 80° WSW 17:31:05 10° NNW visible
22 Jan ? 05:06:41 10° NE 05:09:20 16° E 05:11:57 10° SE visible
22 Jan ? 17:30:42 10° S 17:34:52 64° WSW 17:39:08 10° NNW visible
23 Jan ? 05:14:21 10° NE 05:17:28 19° E 05:20:32 10° SE visible
23 Jan ? 17:38:50 10° S 17:42:57 51° W 17:47:09 10° NNW visible
24 Jan ? 05:22:07 10° NE 05:25:35 23° E 05:28:59 10° SSE visible
24 Jan ? 17:47:01 10° S 17:51:02 41° W 17:55:06 10° NNW visible
25 Jan ? 05:29:57 10° NE 05:33:41 28° E 05:37:20 10° SSE visible
25 Jan ? 17:55:15 10° SSW 17:59:06 34° W 18:03:01 10° NNW visible
